Погода в Анжу

Канада     45°36′15″N   73°31′51″W
темп.,
°C
ветер,
м/с
пор.,
м/с
влажн.,
%
обл.,
%
осадки,
мм/ч
давл.,
гПа
погр.,
м
28 января, пт
пт2801:00−5ююз41192100 2.3 1015787
04:00−5зюз51092100 0.6 1016630
07:00−14сз249037 0.6 1021112
10:00−14с467796 0.0 1025421
13:00−14ссв34745 0.0 1026609
16:00−16всв11895 0.0 102610
19:00−25всв11966 0.0 10289
22:00−28ссв22995 0.0 102831
29 января, сб
сб2901:00−30ссв23997 0.0 102834
04:00−24св51494100 0.0 1026346
07:00−23ссв51587100 0.0 1025397
10:00−20ссв61684100 0.0 1022459
13:00−16ссв61580100 0.0 1017620
16:00−14ссз41281100 0.0 1014576
19:00−14сз3885100 0.0 1011275
22:00−15ссз3981100 0.0 1010321
30 января, вс
вс3001:00−17зсз3982100 0.0 1008248
04:00−20з4108541 0.0 1008161
07:00−20зюз410863 0.0 1010194
10:00−18зюз588519 0.0 1012281
13:00−12зюз598399 0.0 1012748
16:00−12зюз4108829 0.0 1014476
19:00−17юз249634 0.0 101642
22:00−18юз229954 0.0 101837
31 января, пн
пн3101:00−22ю2210091 0.0 101919
04:00−16ю1397100 0.1 102068
07:00−15ююв1198100 0.2 102240
10:00−9ююз2393100 0.4 1023279
13:00−7зюз2489100 0.7 1024605
16:00−7юз119393 0.1 102621
19:00−16юз009846 0.1 10289
22:00−20св1110098 0.0 10309
1 февраля, вт
вт101:00−20ссв22100100 0.1 103135
04:00−18ссв26100100 0.0 103189
07:00−17ссв3599100 0.1 1030109
10:00−13св3496100 0.0 1029164
13:00−6в3691100 0.0 1025357
16:00−1юв61384100 0.0 1021813
19:000ююв81690100 0.4 1019838
22:000ю91692100 2.4 1017727